GW1259 Weather Reports


Display with metric or nautical units.
time (UTC)temp
F
wind
direction
speed
MPH
gust
MPH
rain 1hr
in
rain 24hr
in
rain mn
in
humidity
%
barometer
mb
20260504041601 44 0 0.0 1.0 0.00 0.00 0.00 77 1016.1
20260504040057 43 0 0.0 1.0 0.00 0.00 0.00 78 1016.0
20260504034553 43 0 0.0 1.0 0.00 0.00 0.00 80 1016.0
20260504033057 43 0 0.0 1.0 0.00 0.00 0.00 79 1016.1
20260504031557 44 0 0.0 1.0 0.00 0.00 0.00 78 1016.2
20260504030056 44 0 0.0 1.0 0.00 0.00 0.00 77 1016.1
20260504024609 44 0 0.0 2.0 0.00 0.00 0.00 75 1016.0
20260504023054 44 0 0.0 0.0 0.00 0.00 0.00 71 1016.1
20260504021554 45 0 0.0 0.0 0.00 0.00 0.00 69 1015.9
20260504020055 45 0 0.0 0.0 0.00 0.00 0.00 71 1015.9
20260504014601 46 0 0.0 1.0 0.00 0.00 0.00 65 1015.7
20260504013058 47 0 0.0 0.0 0.00 0.00 0.00 66 1015.5
20260504011555 48 0 0.0 0.0 0.00 0.00 0.00 62 1015.2
20260504010104 49 0 0.0 0.0 0.00 0.00 0.00 62 1015.1
20260504004554 49 0 0.0 0.0 0.00 0.00 0.00 60 1015.1
20260504003057 51 0 0.0 0.0 0.00 0.00 0.00 61 1014.9
20260504001557 52 0 0.0 1.0 0.00 0.00 0.00 52 1014.8
20260504000139 53 0 0.0 0.0 0.00 0.00 0.00 49 1014.9
20260503234601 57 250 0.0 0.0 0.00 0.00 0.00 49 1014.8
20260503233057 59 0 0.0 0.0 0.00 0.00 0.00 44 1014.7
20260503231600 61 0 0.0 2.0 0.00 0.00 0.00 32 1014.6
20260503230054 61 293 0.0 1.0 0.00 0.00 0.00 33 1014.5
20260503224556 61 0 0.0 3.0 0.00 0.00 0.00 30 1014.4
20260503223100 62 296 1.0 2.0 0.00 0.00 0.00 30 1014.5
20260503221600 61 268 1.0 3.0 0.00 0.00 0.00 30 1014.6
20260503220056 61 240 2.0 6.0 0.00 0.00 0.00 29 1014.6
20260503214552 62 207 1.0 4.0 0.00 0.00 0.00 34 1014.6
20260503213107 62 263 2.0 6.0 0.00 0.00 0.00 30 1014.5
20260503211613 62 284 1.0 4.0 0.00 0.00 0.00 34 1014.9
20260503210055 62 23 1.0 6.0 0.00 0.00 0.00 36 1014.8
20260503204555 61 248 1.0 6.0 0.00 0.00 0.00 33 1014.8
20260503203107 62 245 1.0 6.0 0.00 0.00 0.00 32 1015.0
20260503201556 63 226 1.0 9.0 0.00 0.00 0.00 32 1015.0
20260503200053 62 19 2.0 8.0 0.00 0.00 0.00 31 1015.2
20260503194558 62 223 3.0 6.0 0.00 0.00 0.00 35 1015.5
20260503193054 62 336 2.0 7.0 0.00 0.00 0.00 35 1015.8
20260503191559 61 241 2.0 9.0 0.00 0.00 0.00 35 1016.1
20260503190056 61 296 0.0 6.0 0.00 0.00 0.00 37 1016.4
20260503184555 60 192 1.0 7.0 0.00 0.00 0.00 35 1016.5
20260503183055 60 234 1.0 5.0 0.00 0.00 0.00 34 1016.6
20260503181616 59 174 2.0 6.0 0.00 0.00 0.00 41 1016.7
20260503174557 58 240 1.0 4.0 0.00 0.00 0.00 39 1016.7
20260503173100 58 248 1.0 4.0 0.00 0.00 0.00 38 1017.0
20260503171554 57 227 2.0 5.0 0.00 0.00 0.00 40 1017.2
20260503081554 42 0 0.0 1.0 0.00 0.00 0.00 69 1015.6
20260503071603 41 249 0.0 3.0 0.00 0.00 0.00 69 1015.3
20260503070105 41 0 0.0 2.0 0.00 0.00 0.00 69 1015.2
20260503060108 44 0 0.0 0.0 0.00 0.00 0.00 64 1014.9
20260503054556 44 0 0.0 1.0 0.00 0.00 0.00 63 1015.0
20260503053055 45 0 0.0 0.0 0.00 0.00 0.00 64 1015.1
20260503051555 46 0 0.0 0.0 0.00 0.00 0.00 63 1015.1
20260503050058 46 0 0.0 1.0 0.00 0.00 0.00 62 1015.2
20260503044605 47 0 0.0 2.0 0.00 0.00 0.00 62 1015.2
20260503043107 47 328 0.0 1.0 0.00 0.00 0.00 64 1015.2